Weston, WY

5:10 AM MST on February 11, 2016 (GMT -0700)
Gillette-Campbell County

Weather History for KGCC - January, 2014

Change the Weather History Date:

Sunday, January 12, 2014

  Actual Average Record
Temperature  
Mean Temperature 31 °F 26 °F  
Max Temperature 39 °F 38 °F 44 °F (2016)
Min Temperature 23 °F 14 °F 12 °F (2015)
Degree Days  
Heating Degree Days 34 39  
Month to date heating degree days 498 473  
Since 1 July heating degree days 3610 3614  
Cooling Degree Days 0 0  
Month to date cooling degree days 0 0  
Year to date cooling degree days 0 0  
Moisture  
Dew Point 24 °F    
Average Humidity 67    
Maximum Humidity 89    
Minimum Humidity 44    
Precipitation  
Precipitation 0.02 in 0.01 in 0.00 in (2016)
Month to date precipitation 0.21 0.12  
Year to date precipitation 0.21 0.12  
Sea Level Pressure  
Sea Level Pressure 29.62 in    
Wind  
Wind Speed 15 mph (WNW)    
Max Wind Speed 33 mph    
Max Gust Speed 43 mph    
T = Trace of Precipitation, MM = Missing Value Source: NWS Daily Summary

Daily Weather History Graph

Daily Weather History Graph

Search for Another Location

Airport or City:

Trip Planner

Search our weather history database for the weather conditions in past years. The results will help you decide how hot, cold, wet, or windy it might be!

Date:

Astronomy

Jan. 12, 2014 Rise Set
Actual Time 7:36 AM MST 4:45 PM MST
Civil Twilight 7:03 AM MST 5:17 PM MST
Nautical Twilight 6:27 AM MST 5:53 PM MST
Astronomical Twilight 5:52 AM MST 6:28 PM MST
Moon 2:16 PM MST (1/12) 4:36 AM MST (1/12)
Length of Visible Light 10h 14m
Length of Day
9h 09m
Waxing Gibbous, 90% of the Moon is Illuminated
Jan 12
Waxing Gibbous
Jan 15
Full
Jan 23
Last Quarter
Jan 30
New
Feb 6
First Quarter

Hourly Weather History & Observations

Time (MST) Temp. Windchill Dew Point Humidity Pressure Visibility Wind Dir Wind Speed Gust Speed Precip Events Conditions
12:31 AM 33.8 °F 23.2 °F 28.4 °F 81% 29.50 in - North 17.3 mph - N/A   Mostly Cloudy
12:53 AM 33.1 °F 26.1 °F 30.0 °F 89% 29.54 in - NW 8.1 mph - N/A   Overcast
1:07 AM 33.8 °F 25.8 °F 30.2 °F 87% 29.52 in - NNW 10.4 mph - N/A   Overcast
1:17 AM 33.8 °F 26.4 °F 28.4 °F 81% 29.51 in - NNW 9.2 mph - N/A   Overcast
1:36 AM 33.8 °F 26.4 °F 28.4 °F 81% 29.50 in - NNW 9.2 mph 18.4 mph 0.00 in Snow Light Snow
1:44 AM 32.0 °F 25.6 °F 28.4 °F 87% 29.49 in - NNW 6.9 mph - 0.00 in Snow Light Snow
1:53 AM 32.0 °F 27.5 °F 30.0 °F 92% 29.52 in - NW 4.6 mph - 0.00 in Snow Light Snow
2:20 AM 32.0 °F - 30.2 °F 93% 29.50 in - Calm Calm - 0.00 in   Overcast
2:29 AM 32.0 °F - 28.4 °F 87% 29.52 in - Calm Calm - 0.00 in Snow Light Snow
2:53 AM 32.0 °F 23.6 °F 30.0 °F 92% 29.51 in - SW 10.4 mph - 0.02 in   Overcast
3:53 AM 35.1 °F 25.9 °F 28.9 °F 78% 29.46 in - WSW 13.8 mph - N/A   Overcast
4:53 AM 32.0 °F 21.6 °F 28.9 °F 88% 29.48 in - SW 15.0 mph - N/A   Clear
5:53 AM 33.1 °F 21.9 °F 26.1 °F 75% 29.47 in - SSW 18.4 mph - N/A   Clear
6:53 AM 33.1 °F 21.2 °F 26.1 °F 75% 29.48 in - SW 20.7 mph - N/A   Clear
7:53 AM 33.1 °F 22.2 °F 25.0 °F 72% 29.51 in - WSW 17.3 mph - N/A   Clear
8:53 AM 35.1 °F 25.5 °F 24.1 °F 64% 29.52 in - SW 15.0 mph - N/A   Clear
9:53 AM 36.0 °F 28.0 °F 24.1 °F 62% 29.54 in - SW 11.5 mph - N/A   Clear
10:53 AM 37.0 °F 29.8 °F 21.9 °F 54% 29.57 in - West 10.4 mph - N/A   Mostly Cloudy
11:53 AM 39.0 °F 30.6 °F 19.9 °F 46% 29.58 in - WNW 15.0 mph - N/A   Clear
12:53 PM 37.0 °F 25.6 °F 21.0 °F 52% 29.62 in - NW 24.2 mph 32.2 mph N/A   Mostly Cloudy
1:53 PM 35.1 °F 21.6 °F 21.9 °F 59% 29.68 in - NW 31.1 mph 38.0 mph N/A   Overcast
2:53 PM 36.0 °F 25.6 °F 23.0 °F 59% 29.71 in - NW 18.4 mph - N/A   Partly Cloudy
3:53 PM 36.0 °F 24.7 °F 19.9 °F 52% 29.72 in - NW 21.9 mph 27.6 mph N/A   Clear
4:53 PM 34.0 °F 22.1 °F 18.0 °F 52% 29.79 in - NW 21.9 mph 31.1 mph N/A   Clear
5:53 PM 33.1 °F 21.9 °F 17.1 °F 52% 29.81 in - NW 18.4 mph - N/A   Clear
6:53 PM 30.9 °F 21.2 °F 18.0 °F 59% 29.85 in - WNW 12.7 mph - N/A   Clear
7:53 PM 30.0 °F 20.5 °F 18.0 °F 61% 29.87 in - NW 11.5 mph - N/A   Mostly Cloudy
8:53 PM 27.0 °F 18.7 °F 19.0 °F 72% 29.88 in - WNW 8.1 mph - N/A   Mostly Cloudy
9:53 PM 28.0 °F 20.8 °F 21.0 °F 75% 29.89 in - West 6.9 mph - N/A   Overcast
10:53 PM 24.1 °F 17.0 °F 18.0 °F 77% 29.87 in - SW 5.8 mph - N/A   Clear
11:53 PM 27.0 °F 16.7 °F 17.1 °F 66% 29.85 in - SW 11.5 mph - N/A   Clear